Skip Page Navigation
NASA JPL Caltech
NASA Logo - Jet Propulsion Laboratory + View the NASA Portal
+ Center for Near-Earth Object Studies
JPL Home Earth Solar System Stars & Galaxies Technology
JPL Solar System Dynamics
BODIES ORBITS EPHEMERIDES TOOLS PHYSICAL DATA DISCOVERY FAQ SITE MAP
IMPORTANT: The SSD Announcement email list is now available. Major changes are coming in the near future, including possible hostname and/or URL changes. To be notified of such changes, subscribe to this email list.

Please visit this page for more details.


JPL Small-Body Database Browser
Search: [ help ]  
434164 (2002 TS42)
Classification: Main-belt Asteroid          SPK-ID: 2434164
Ephemeris | Orbit Diagram | Orbital Elements | Mission Design | Physical Parameters | Discovery Circumstances ]

[ show orbit diagram ]
Orbital Elements at Epoch 2459000.5 (2020-May-31.0) TDB
Reference: JPL 12 (heliocentric ecliptic J2000)
 Element Value Uncertainty (1-sigma)   Units 
e .2232914313303749 7.9006e-08  
a 2.324478243795075 1.4647e-08 au
q 1.805442169641757 1.9008e-07 au
i 5.954493984700054 5.4247e-06 deg
node 197.0773058912942 4.6678e-05 deg
peri 173.4170022800977 4.8258e-05 deg
M 2.011393447751358 1.2812e-05 deg
tp 2458993.267620846358
(2020-May-23.76762085)
4.6022e-05 TDB
period 1294.454100077619
3.54
1.2235e-05
3.35e-08
d
yr
n .2781095134840343 2.6286e-09 deg/d
Q 2.843514317948394 1.7917e-08 au
  Orbit Determination Parameters
   # obs. used (total)      231  
   data-arc span      6140 days (16.81 yr)  
   first obs. used      2002-10-02  
   last obs. used      2019-07-25  
   planetary ephem.      DE431  
   SB-pert. ephem.      SB431-N16  
   condition code      0  
   norm. resid. RMS      .52203  
   source      ORB  
   producer      Otto Matic  
   solution date      2019-Sep-24 07:35:01  

Additional Information
 Earth MOID = .805488 au 
 Jupiter MOID = 2.62277 au 
 T_jup = 3.534 
[ show covariance matrix ]

Ephemeris | Orbit Diagram | Orbital Elements | Mission Design | Physical Parameters | Discovery Circumstances ]

Physical Parameter Table
Parameter Symbol Value Units Sigma Reference Notes
absolute magnitude H 17.4   n/a MPO437680  

434164 (2002 TS42)          Discovered 2002-Oct-02 by LINEAR at Socorro
Reference: Last Updated: 2015-06-04

Alternate Designations
 2002 TS42 = 2009 SH207 
Ephemeris | Orbit Diagram | Orbital Elements | Mission Design | Physical Parameters | Discovery Circumstances ]
ABOUT SSD CREDITS/AWARDS PRIVACY/COPYRIGHT GLOSSARY LINKS
FirstGov 2020-May-30 21:22 UT
(server date/time)  
NASA Home Page
Site Manager:   Ryan S. Park
Webmaster  Alan B. Chamberlin